Flag for Germany Weather past 2 weeks in Aurich, Lower Saxony, Germany

Now
57 °F

Fog.


Feels Like: 57 °F
Forecast: 56 / 60 °F
Wind: 5 mph from East

Location: Wittmundhaven

Current Time: Sep 20, 2014 at 5:56:00 AM

Latest Report: Sep 20, 2014 at 4:20 AM


Visibility: 2 mi

Pressure: 29.92 "Hg

Humidity: 94%

Dew point: 55 °F

Location of AurichLocation

Historic Weather in Aurich — Graph

°F

Aurich temperature yesterday

Maximum temperature yesterday: 75 °F (at 3:20 PM)
Minimum temperature yesterday: 55 °F (at 5:20 AM)
Average temperature yesterday: 65 °F

Past Weeks' High & Low Weather Summary

 TemperatureHumidityPressure
High75 °F (Sep 5, 4:20 PM)100% (Sep 5, 11:20 PM)30.30 "Hg (Sep 5, 11:20 PM)
Low48 °F (Sep 12, 4:20 AM)57% (Sep 17, 3:20 PM)29.86 "Hg (Sep 6, 5:20 PM)
Average62 °F85%30.04 "Hg
* Reported Sep 5 4:20 AM — Sep 20 4:20 AM, Aurich, Weather by CustomWeather, © 2014

Note: Actual official high and low records may vary slightly from our data, if they occured in-between our weather recording intervals... More about our weather records

Advertising

Aurich weather history for previous 24 hours

 ConditionsComfort  
Time TempWeatherWind HumidityBarometerVisibility
4:20 AM
Sep 20
57 °FFog.5 mph94%29.92 "Hg2 mi
3:20 AM55 °FFog.3 mph100%29.92 "Hg2 mi
2:20 AM57 °FFog.2 mph94%29.92 "Hg2 mi
1:20 AM61 °FFog.2 mph88%29.92 "Hg3 mi
12:20 AM63 °FPassing clouds.3 mph88%29.92 "Hg4 mi
11:20 PM
Sep 19
63 °FPassing clouds.6 mph94%29.92 "Hg4 mi
10:20 PM64 °FPassing clouds.5 mph88%29.92 "Hg5 mi
9:20 PM66 °FPassing clouds.6 mph83%29.89 "HgN/A
8:20 PM66 °FScattered clouds.7 mph83%29.89 "HgN/A
7:20 PM68 °FScattered clouds.6 mph78%29.89 "HgN/A
6:20 PM72 °FScattered clouds.7 mph73%29.89 "HgN/A
5:20 PM73 °FScattered clouds.10 mph65%29.89 "HgN/A
4:20 PM73 °FScattered clouds.9 mph65%29.89 "HgN/A
3:20 PM75 °FScattered clouds.8 mph57%29.89 "HgN/A
2:20 PM73 °FScattered clouds.8 mph57%29.89 "HgN/A
1:20 PM72 °FScattered clouds.6 mph65%29.89 "HgN/A
12:20 PM70 °FScattered clouds.6 mph73%29.89 "HgN/A
11:20 AM68 °FPassing clouds.5 mph78%29.89 "Hg6 mi
10:20 AM64 °FPassing clouds.3 mph83%29.92 "Hg5 mi
9:57 AM63 °FPassing clouds.5 mph88%29.89 "Hg4 mi
8:20 AM55 °FFog.5 mph100%29.89 "Hg1 mi
7:20 AM55 °FLight fog.3 mph100%29.89 "Hg1 mi
6:20 AM55 °FFog.5 mph100%29.86 "Hg2 mi
5:20 AM55 °FFog.3 mph94%29.86 "Hg4 mi
Weather by CustomWeather, © 2014

See weather overviewHow to use our weather pages